STARLINK-1303 (45396 NORAD) Tracking and Keplerian Element Data

This shows tracking and keplerian element data for the satellite.

Feedback or suggestion? Click here.




ElementValue
Catalog45396
NameSTARLINK-1303
Epoch Orbit1695
Epoch Day185.50001157
Epoch Year2020
RAAN102.5029
Inclination53.0007
Eccentricity0.0001581
Argument of Perigee79.8594
Mean Anonmoly13.8171
Mean Motion15.0560336
Decay Rate-0.00029867
L11 45396U 20019AN 20185.50001157 -.00029867 00000-0 -20380-2 0 9993
L22 45396 53.0007 102.5029 0001581 79.8594 13.8171 15.05603360 16951

Live tracking and technical data element details for STARLINK-1303 (NORAD 45396). STARLINK-1303 can be tracked NOW for your location showing map with azimuth and elevation plus other details from your city location.

Track the satellite on the map from your city or location and see movement details for azimuth, elevation, latitude, longitude, range, height, and movement on the map or in text.







IsCatalogInMostPopularTable: catalog: 45396, numindb: 33
Update: records affected: 1



GetName: 45396 STARLINK-1303

Hit Count: updated at: Fri, 03 Jul 2020 16:33:14 GMT